period_start,C,m1,H,J0,J1,J2,J3,J4,J5,JA,JB,JC,JD,JJ,JK,JN,#
2015-10-01 00:04:12,0.03,1.29,0.00,22.00,27.30,30.64,14.70,47.86,1018.01,2036.99,3023.69,2934.52,3170.53,599.95,598.82,33.65,0000 0000 0000 0000 000000
2015-10-01 00:09:14,0.02,1.29,0.00,21.84,27.30,30.58,14.61,47.71,1018.02,2036.99,3023.14,2934.10,3170.08,599.88,599.17,33.70,0000 0000 0000 0000 000000
2015-10-01 00:14:15,0.00,1.29,0.00,21.71,27.30,30.59,14.76,47.88,1018.03,2036.99,3023.00,2934.00,3170.00,600.34,599.85,33.75,0000 0000 0000 0000 000000
2015-10-01 00:19:16,0.01,1.29,0.00,21.67,27.30,30.68,14.69,47.80,1018.04,2036.99,3022.87,2933.91,3169.80,599.96,599.45,33.80,0000 0000 0000 0000 000000
2015-10-01 00:24:17,0.04,1.29,0.00,21.62,27.30,30.78,14.71,47.80,1017.93,2036.99,3022.19,2933.32,3169.12,600.17,599.65,33.85,0000 0000 0000 0000 000000
2015-10-01 00:29:18,0.00,1.29,0.00,21.57,27.30,30.75,14.73,47.92,1017.97,2036.99,3022.01,2933.02,3169.00,599.94,599.66,33.90,0000 0000 0000 0000 000000
2015-10-01 00:34:19,0.00,1.29,0.00,21.57,27.29,30.70,14.59,47.74,1018.02,2036.99,3021.99,2933.00,3168.99,599.70,599.46,33.95,0000 0000 0000 0000 000000
2015-10-01 00:39:20,0.05,1.29,0.00,21.52,27.27,30.69,14.65,47.73,1018.04,2036.99,3021.67,2932.42,3168.36,599.76,599.62,34.00,0000 0000 0000 0000 000000
2015-10-01 00:44:21,0.01,1.30,0.00,21.51,27.27,30.68,14.67,47.80,1018.04,2037.00,3021.14,2932.03,3168.00,599.69,599.58,34.05,0000 0000 0000 0000 000000
2015-10-01 00:49:22,0.00,1.30,0.00,21.51,27.27,30.62,14.64,47.61,1018.03,2037.01,3021.01,2931.99,3167.99,599.90,599.76,34.10,0000 0000 0000 0000 000000
2015-10-01 00:54:24,0.00,1.30,0.00,21.47,27.26,30.65,14.73,47.61,1018.06,2037.01,3021.00,2931.99,3167.97,599.84,599.82,34.15,0000 0000 0000 0000 000000
2015-10-01 00:59:25,0.00,1.30,0.00,21.48,27.25,30.64,14.71,47.73,1017.96,2037.01,3021.00,2931.99,3167.86,600.09,600.06,34.20,0000 0000 0000 0000 000000
2015-10-01 01:04:26,0.01,1.30,0.00,21.48,27.25,30.63,14.69,47.70,1017.98,2037.04,3020.97,2931.96,3167.36,599.70,599.69,34.25,0000 0000 0000 0000 000000
2015-10-01 01:09:28,0.02,1.30,0.00,21.47,27.25,30.65,14.73,47.77,1017.98,2037.02,3020.70,2931.68,3167.06,600.25,600.29,34.30,0000 0000 0000 0000 000000
2015-10-01 01:14:29,0.03,1.30,0.00,21.48,27.24,30.66,14.70,47.74,1017.85,2037.14,3020.16,2931.18,3167.00,599.80,599.70,34.35,0000 0000 0000 0000 000000
2015-10-01 01:19:30,0.02,1.30,0.00,21.45,27.22,30.65,14.70,47.84,1017.64,2037.19,3019.99,2930.99,3166.64,600.12,599.89,34.40,0000 0000 0000 0000 000000
2015-10-01 01:24:31,0.06,1.30,0.00,21.48,27.22,30.64,14.70,47.73,1017.66,2037.27,3019.42,2930.20,3166.01,600.09,599.70,34.45,0000 0000 0000 0000 000000
2015-10-01 01:29:33,0.05,1.31,0.00,21.75,27.22,30.56,14.73,47.76,1017.75,2037.60,3019.01,2929.97,3165.56,600.31,599.52,34.51,0000 0000 0000 0000 000000
2015-10-01 01:34:34,0.04,1.31,0.00,21.99,27.24,30.41,14.63,47.77,1017.78,2037.77,3018.92,2929.26,3165.01,600.01,598.75,34.56,0000 0000 0000 0000 000000
2015-10-01 01:39:35,0.02,1.31,0.00,21.86,27.25,30.40,14.65,47.77,1017.98,2037.80,3018.21,2928.99,3164.54,599.81,598.90,34.61,0000 0000 0000 0000 000000
2015-10-01 01:44:36,0.03,1.31,0.00,21.72,27.25,30.46,14.71,48.05,1018.02,2037.82,3018.00,2928.42,3164.01,599.91,599.14,34.66,0000 0000 0000 0000 000000
2015-10-01 01:49:37,0.01,1.31,0.00,21.65,27.25,30.52,14.67,47.83,1018.06,2037.75,3017.88,2928.02,3163.83,599.96,599.51,34.71,0000 0000 0000 0000 000000
2015-10-01 01:54:38,0.03,1.31,0.00,21.62,27.25,30.61,14.73,47.70,1018.08,2037.83,3017.06,2927.88,3163.05,599.94,599.57,34.76,0000 0000 0000 0000 000000
2015-10-01 01:59:40,0.01,1.32,0.00,21.55,27.25,30.69,14.74,47.67,1018.08,2037.71,3017.00,2927.18,3162.98,600.30,600.05,34.81,0000 0000 0000 0000 000000
2015-10-01 02:04:41,0.03,1.32,0.00,21.52,27.25,30.69,14.71,47.77,1018.08,2037.85,3016.88,2927.01,3162.63,600.03,599.85,34.86,0000 0000 0000 0000 000000
2015-10-01 02:09:42,0.01,1.32,0.00,21.53,27.25,30.65,14.67,47.70,1018.08,2037.91,3016.63,2927.00,3162.10,600.20,600.03,34.91,0000 0000 0000 0000 000000
2015-10-01 02:14:44,0.01,1.32,0.00,21.48,27.24,30.65,14.66,47.68,1018.08,2037.93,3016.28,2926.98,3162.02,600.23,600.23,34.96,0000 0000 0000 0000 000000
2015-10-01 02:19:45,-0.01,1.32,0.00,21.48,27.23,30.62,14.66,47.69,1018.08,2037.93,3016.16,2926.95,3162.00,599.88,599.83,35.01,0000 0000 0000 0000 000000
2015-10-01 02:24:46,0.00,1.32,0.00,21.49,27.22,30.60,14.67,47.61,1018.08,2037.86,3016.02,2926.89,3162.00,600.04,599.88,35.06,0000 0000 0000 0000 000000
2015-10-01 02:29:48,0.00,1.32,0.00,21.47,27.22,30.63,14.72,47.59,1018.08,2037.93,3016.01,2926.90,3162.00,600.17,600.08,35.11,0000 0000 0000 0000 000000
2015-10-01 02:34:49,0.00,1.32,0.00,21.48,27.22,30.63,14.73,47.59,1018.08,2037.95,3016.02,2926.90,3161.99,599.84,599.93,35.16,0000 0000 0000 0000 000000
2015-10-01 02:39:50,0.00,1.32,0.00,21.49,27.22,30.61,14.72,47.67,1018.08,2037.97,3016.00,2926.82,3161.99,599.93,599.85,35.21,0000 0000 0000 0000 000000
2015-10-01 02:44:51,-0.00,1.32,0.00,21.49,27.22,30.62,14.78,47.63,1018.08,2037.97,3016.00,2926.77,3161.99,600.46,600.40,35.26,0000 0000 0000 0000 000000
2015-10-01 02:49:52,-0.00,1.32,0.00,21.51,27.22,30.64,14.67,47.60,1018.08,2037.98,3016.00,2926.77,3161.99,600.05,600.09,35.31,0000 0000 0000 0000 000000
2015-10-01 02:54:53,0.00,1.32,0.00,21.57,27.22,30.60,14.67,47.64,1018.07,2037.96,3016.00,2926.62,3161.98,600.02,599.80,35.36,0000 0000 0000 0000 000000
2015-10-01 02:59:55,0.01,1.32,0.00,21.89,27.22,30.34,14.59,47.54,1018.08,2037.97,3016.00,2926.39,3161.97,599.73,598.87,35.42,0000 0000 0000 0000 000000
2015-10-01 03:04:56,0.01,1.32,0.00,21.98,27.23,30.35,14.65,47.58,1018.08,2037.98,3015.99,2926.18,3161.94,600.18,599.10,35.47,0000 0000 0000 0000 000000
2015-10-01 03:09:57,0.00,1.32,0.00,21.82,27.25,30.38,14.62,47.48,1018.09,2037.92,3015.95,2926.04,3161.67,600.37,599.68,35.52,0000 0000 0000 0000 000000
2015-10-01 03:14:58,0.01,1.32,0.00,21.77,27.25,30.41,14.66,47.60,1018.08,2037.92,3015.93,2926.01,3161.34,599.91,599.38,35.57,0000 0000 0000 0000 000000
2015-10-01 03:19:59,-0.00,1.32,0.00,21.74,27.25,30.45,14.58,47.50,1018.08,2037.85,3015.46,2926.00,3161.06,599.57,598.94,35.62,0000 0000 0000 0000 000000
2015-10-01 03:25:01,-0.01,1.32,0.00,21.70,27.25,30.49,14.69,47.51,1018.08,2037.54,3015.05,2926.00,3161.01,599.95,599.48,35.67,0000 0000 0000 0000 000000
2015-10-01 03:30:02,-0.01,1.32,0.00,21.70,27.27,30.54,14.74,47.55,1018.08,2037.60,3015.04,2925.98,3161.00,600.06,599.60,35.72,0000 0000 0000 0000 000000
2015-10-01 03:35:03,-0.02,1.32,0.00,21.68,27.27,30.60,14.71,47.60,1018.08,2037.32,3015.00,2925.98,3161.00,599.93,599.46,35.77,0000 0000 0000 0000 000000
2015-10-01 03:40:04,0.01,1.32,0.00,21.67,27.27,30.68,14.73,47.60,1018.08,2037.48,3015.00,2925.98,3160.99,600.06,599.68,35.82,0000 0000 0000 0000 000000
2015-10-01 03:45:05,0.01,1.32,0.00,21.71,27.27,30.61,14.67,47.55,1018.07,2037.49,3015.00,2925.97,3160.99,599.73,599.17,35.87,0000 0000 0000 0000 000000
2015-10-01 03:50:06,-0.02,1.32,0.00,22.02,27.27,30.38,14.68,47.52,1018.08,2037.40,3015.00,2925.92,3160.97,600.21,599.10,35.92,0000 0000 0000 0000 000000
2015-10-01 03:55:07,-0.00,1.32,0.00,22.19,27.30,30.39,14.65,47.58,1018.08,2037.22,3014.98,2925.71,3160.88,599.91,598.52,35.97,0000 0000 0000 0000 000000
2015-10-01 04:00:08,0.01,1.32,0.00,22.04,27.30,30.37,14.63,47.60,1018.08,2037.10,3014.88,2925.27,3160.36,600.06,598.89,36.02,0000 0000 0000 0000 000000
2015-10-01 04:05:09,0.01,1.32,0.00,21.93,27.32,30.41,14.66,47.70,1018.07,2037.06,3014.49,2925.09,3160.07,599.87,598.94,36.07,0000 0000 0000 0000 000000
2015-10-01 04:10:10,0.00,1.32,0.00,21.89,27.32,30.44,14.67,47.67,1018.05,2037.02,3014.21,2925.05,3160.01,600.04,599.19,36.12,0000 0000 0000 0000 000000
2015-10-01 04:15:12,0.00,1.32,0.00,21.84,27.32,30.50,14.67,47.58,1018.05,2037.02,3014.03,2925.00,3160.00,600.01,599.25,36.17,0000 0000 0000 0000 000000
2015-10-01 04:20:13,0.00,1.32,0.00,21.79,27.32,30.53,14.65,47.58,1018.07,2037.03,3014.00,2925.00,3160.00,599.53,598.77,36.22,0000 0000 0000 0000 000000
2015-10-01 04:25:15,0.00,1.32,0.00,21.78,27.33,30.62,14.67,47.72,1017.92,2037.04,3014.00,2925.00,3160.00,599.43,598.65,36.27,0000 0000 0000 0000 000000
2015-10-01 04:30:16,-0.00,1.32,0.00,21.82,27.34,30.52,14.70,47.55,1017.79,2037.02,3013.99,2925.00,3159.99,600.33,599.37,36.32,0000 0000 0000 0000 000000
2015-10-01 04:35:17,0.00,1.32,0.00,22.12,27.35,30.39,14.54,47.70,1017.64,2037.03,3013.97,2924.99,3159.96,599.75,598.11,36.37,0000 0000 0000 0000 000000
2015-10-01 04:40:19,0.00,1.32,0.00,22.20,27.36,30.42,14.64,47.56,1017.65,2037.00,3013.92,2924.97,3159.90,600.30,598.55,36.43,0000 0000 0000 0000 000000
2015-10-01 04:45:20,0.02,1.32,0.00,22.03,27.37,30.44,14.65,47.82,1017.75,2037.01,3013.40,2924.81,3159.45,599.78,598.40,36.48,0000 0000 0000 0000 000000
2015-10-01 04:50:22,0.02,1.32,0.00,21.96,27.37,30.48,14.58,47.58,1017.83,2037.00,3013.02,2924.28,3159.05,599.90,598.74,36.53,0000 0000 0000 0000 000000
2015-10-01 04:55:23,0.00,1.32,0.00,21.91,27.37,30.54,14.71,47.67,1017.91,2037.00,3013.00,2924.05,3159.00,600.15,599.08,36.58,0000 0000 0000 0000 000000
2015-10-01 05:00:25,0.00,1.32,0.00,21.85,27.38,30.61,14.70,47.73,1017.91,2037.00,3012.99,2924.00,3158.99,600.20,599.02,36.63,0000 0000 0000 0000 000000
2015-10-01 05:05:26,0.00,1.32,0.00,21.84,27.39,30.63,14.74,47.71,1017.93,2037.00,3012.99,2924.00,3158.98,600.29,599.35,36.68,0000 0000 0000 0000 000000
2015-10-01 05:10:27,0.00,1.32,0.00,21.84,27.39,30.66,14.65,47.46,1017.98,2037.00,3012.97,2924.00,3158.99,599.78,598.97,36.73,0000 0000 0000 0000 000000
2015-10-01 05:15:28,0.00,1.32,0.00,22.09,27.40,30.43,14.70,47.58,1017.73,2037.00,3012.93,2924.00,3158.88,600.27,598.81,36.78,0000 0000 0000 0000 000000
2015-10-01 05:20:29,0.00,1.32,0.00,22.28,27.40,30.42,14.65,47.45,1017.63,2037.00,3012.86,2923.99,3158.54,600.12,598.20,36.83,0000 0000 0000 0000 000000
2015-10-01 05:25:30,0.02,1.32,0.00,22.14,27.42,30.45,14.64,47.56,1017.79,2037.00,3012.37,2923.96,3158.17,599.92,598.32,36.88,0000 0000 0000 0000 000000
2015-10-01 05:30:32,0.01,1.33,0.00,22.03,27.42,30.48,14.63,47.67,1018.07,2037.00,3012.05,2923.89,3158.06,599.79,598.67,36.93,0000 0000 0000 0000 000000
2015-10-01 05:35:33,0.01,1.33,0.00,22.01,27.42,30.52,14.65,47.51,1018.08,2037.00,3012.01,2923.64,3158.01,599.65,598.54,36.98,0000 0000 0000 0000 000000
2015-10-01 05:40:34,0.00,1.33,0.00,21.97,27.42,30.57,14.68,47.67,1018.04,2036.99,3012.00,2923.39,3158.00,599.95,598.92,37.03,0000 0000 0000 0000 000000
2015-10-01 05:45:36,-0.00,1.33,0.00,21.92,27.43,30.62,14.72,47.60,1018.01,2036.99,3012.00,2923.28,3158.00,600.08,599.15,37.08,0000 0000 0000 0000 000000
2015-10-01 05:50:37,0.01,1.33,0.00,22.08,27.44,30.51,14.56,47.52,1018.06,2036.99,3012.00,2923.17,3158.00,599.84,598.56,37.13,0000 0000 0000 0000 000000
2015-10-01 05:55:38,0.00,1.33,0.00,22.33,27.45,30.47,14.53,47.46,1018.07,2036.98,3011.99,2923.02,3157.99,599.42,597.65,37.18,0000 0000 0000 0000 000000
2015-10-01 06:00:39,-0.00,1.33,0.00,22.28,27.47,30.50,14.61,47.52,1018.07,2036.97,3011.99,2923.01,3157.97,599.98,598.22,37.23,0000 0000 0000 0000 000000
2015-10-01 06:05:41,-0.00,1.33,0.00,22.16,27.47,30.53,14.61,47.58,1018.04,2036.93,3011.94,2923.00,3157.92,600.04,598.62,37.28,0000 0000 0000 0000 000000
2015-10-01 06:10:42,0.00,1.33,0.00,22.06,27.47,30.56,14.73,47.52,1017.89,2036.90,3011.84,2923.00,3157.70,600.24,598.91,37.34,0000 0000 0000 0000 000000
2015-10-01 06:15:43,0.01,1.33,0.00,22.02,27.47,30.61,14.69,47.52,1017.88,2036.90,3011.52,2923.00,3157.35,599.99,598.73,37.39,0000 0000 0000 0000 000000
2015-10-01 06:20:45,-0.03,1.33,0.00,22.04,27.48,30.57,14.63,47.59,1018.01,2036.58,3011.13,2922.98,3157.05,600.11,598.84,37.44,0000 0000 0000 0000 000000
2015-10-01 06:25:46,0.00,1.33,0.00,22.30,27.50,30.49,14.65,47.54,1017.87,2036.64,3011.16,2922.98,3157.05,600.36,598.28,37.49,0000 0000 0000 0000 000000
2015-10-01 06:30:47,-0.02,1.33,0.00,22.36,27.50,30.49,14.68,47.41,1017.77,2036.37,3011.04,2922.91,3157.01,599.83,597.85,37.54,0000 0000 0000 0000 000000
2015-10-01 06:35:48,0.01,1.33,0.00,22.18,27.51,30.53,14.62,47.46,1017.99,2036.32,3011.00,2922.83,3157.00,599.68,598.17,37.59,0000 0000 0000 0000 000000
2015-10-01 06:40:50,0.01,1.33,0.00,22.10,27.52,30.57,14.60,47.68,1017.96,2036.45,3011.00,2922.82,3157.00,599.81,598.52,37.64,0000 0000 0000 0000 000000
2015-10-01 06:45:51,0.00,1.33,0.00,22.06,27.52,30.61,14.59,47.36,1017.97,2036.30,3010.99,2922.48,3157.00,600.10,598.75,37.69,0000 0000 0000 0000 000000
2015-10-01 06:50:53,0.02,1.33,0.00,21.99,27.52,30.70,14.66,47.57,1017.98,2036.49,3010.99,2922.43,3157.00,600.02,598.94,37.74,0000 0000 0000 0000 000000
2015-10-01 06:55:54,0.01,1.33,0.00,22.00,27.52,30.74,14.62,47.62,1017.92,2036.63,3010.98,2922.52,3157.00,599.89,598.67,37.79,0000 0000 0000 0000 000000
2015-10-01 07:00:55,-0.00,1.33,0.00,22.25,27.52,30.54,14.66,47.60,1018.03,2036.49,3010.94,2922.09,3156.99,600.02,598.34,37.84,0000 0000 0000 0000 000000
2015-10-01 07:05:56,0.02,1.33,0.00,22.44,27.53,30.55,14.61,47.58,1018.02,2036.56,3010.95,2922.08,3156.97,600.34,598.35,37.89,0000 0000 0000 0000 000000
2015-10-01 07:10:57,-0.02,1.33,0.00,22.34,27.55,30.56,14.60,47.48,1018.08,2036.54,3010.92,2922.07,3156.96,599.99,598.18,37.94,0000 0000 0000 0000 000000
2015-10-01 07:15:58,-0.00,1.33,0.00,22.18,27.55,30.61,14.71,47.52,1018.08,2036.41,3010.68,2922.04,3156.93,600.25,598.83,37.99,0000 0000 0000 0000 000000
2015-10-01 07:21:00,0.00,1.33,0.00,22.10,27.55,30.63,14.66,47.41,1018.05,2036.23,3010.22,2922.00,3156.75,599.91,598.59,38.04,0000 0000 0000 0000 000000
2015-10-01 07:26:01,0.00,1.33,0.00,22.07,27.55,30.71,14.64,47.44,1018.01,2036.31,3010.13,2922.01,3156.64,600.05,598.74,38.09,0000 0000 0000 0000 000000
2015-10-01 07:31:02,-0.00,1.33,0.00,22.03,27.55,30.75,14.66,47.52,1017.91,2036.14,3010.00,2922.00,3156.15,600.30,598.96,38.14,0000 0000 0000 0000 000000
2015-10-01 07:36:03,0.03,1.33,0.00,22.28,27.55,30.56,14.61,47.76,1018.01,2036.40,3010.01,2922.00,3156.16,600.08,598.37,38.19,0000 0000 0000 0000 000000
2015-10-01 07:41:04,-0.02,1.33,0.00,22.41,27.55,30.56,14.58,47.70,1018.04,2036.31,3010.00,2922.00,3156.09,599.59,597.69,38.25,0000 0000 0000 0000 000000
2015-10-01 07:46:06,-0.02,1.33,0.00,22.23,27.57,30.58,14.58,47.57,1018.06,2036.13,3010.00,2922.00,3156.02,599.61,598.02,38.30,0000 0000 0000 0000 000000
2015-10-01 07:51:07,0.00,1.33,0.00,22.14,27.57,30.64,14.58,47.64,1018.01,2036.09,3009.99,2921.97,3156.00,599.96,598.44,38.35,0000 0000 0000 0000 000000
2015-10-01 07:56:08,0.00,1.33,0.00,22.09,27.57,30.69,14.71,47.70,1018.06,2036.12,3009.96,2921.97,3156.00,599.84,598.65,38.40,0000 0000 0000 0000 000000
2015-10-01 08:01:09,-0.00,1.33,0.00,22.14,27.57,30.59,14.64,47.65,1018.08,2036.09,3009.95,2921.97,3156.00,600.21,598.80,38.45,0000 0000 0000 0000 000000
2015-10-01 08:06:10,0.00,1.33,0.00,22.40,27.57,30.53,14.66,47.56,1018.08,2036.08,3009.85,2921.93,3155.98,600.62,598.70,38.50,0000 0000 0000 0000 000000
2015-10-01 08:11:11,0.00,1.33,0.00,22.32,27.57,30.57,14.66,47.56,1018.09,2036.05,3009.80,2921.94,3155.98,599.97,598.24,38.55,0000 0000 0000 0000 000000
2015-10-01 08:16:12,0.02,1.33,0.00,22.16,27.57,30.60,14.68,47.73,1018.10,2036.11,3009.46,2921.87,3155.96,599.85,598.44,38.60,0000 0000 0000 0000 000000
2015-10-01 08:21:14,0.01,1.33,0.00,22.10,27.57,30.66,14.68,47.67,1018.12,2036.06,3009.05,2921.53,3155.79,600.02,598.79,38.65,0000 0000 0000 0000 000000
2015-10-01 08:26:15,0.00,1.33,0.00,22.04,27.57,30.72,14.58,47.55,1018.37,2036.03,3009.00,2921.25,3155.44,599.71,598.61,38.70,0000 0000 0000 0000 000000
2015-10-01 08:31:16,0.00,1.33,0.00,22.04,27.57,30.67,14.63,47.63,1018.52,2036.03,3009.00,2921.20,3155.34,600.14,599.26,38.75,0000 0000 0000 0000 000000
2015-10-01 08:36:17,-0.00,1.33,0.00,22.33,27.57,30.58,14.68,47.45,1018.57,2036.03,3009.01,2921.32,3155.36,599.88,598.47,38.80,0000 0000 0000 0000 000000
2015-10-01 08:41:18,0.01,1.33,0.00,22.36,27.58,30.60,14.57,47.46,1018.57,2036.04,3009.00,2921.08,3155.11,599.83,598.25,38.85,0000 0000 0000 0000 000000
2015-10-01 08:46:20,-0.00,1.33,0.00,22.20,27.59,30.61,14.64,47.54,1018.57,2036.01,3008.99,2921.07,3155.02,599.98,598.85,38.90,0000 0000 0000 0000 000000
2015-10-01 08:51:21,0.00,1.33,0.00,22.13,27.59,30.66,14.64,47.58,1018.57,2036.03,3008.98,2921.05,3155.01,599.83,598.81,38.95,0000 0000 0000 0000 000000
2015-10-01 08:56:22,0.00,1.33,0.00,22.05,27.58,30.75,14.71,47.56,1018.57,2036.01,3008.96,2921.02,3155.01,600.00,599.13,39.00,0000 0000 0000 0000 000000
2015-10-01 09:01:24,0.00,1.33,0.00,22.03,27.57,30.90,14.68,47.63,1018.57,2036.02,3008.88,2921.03,3155.01,600.06,599.25,39.05,0000 0000 0000 0000 000000
2015-10-01 09:06:25,0.01,1.33,0.00,22.24,27.58,30.64,14.65,47.60,1018.58,2036.02,3008.59,2921.02,3155.00,600.05,598.78,39.10,0000 0000 0000 0000 000000
2015-10-01 09:11:26,-0.00,1.33,0.00,22.43,27.59,30.61,14.58,47.52,1018.62,2036.01,3008.44,2921.01,3154.99,599.64,597.94,39.15,0000 0000 0000 0000 000000
2015-10-01 09:16:28,0.00,1.33,0.00,22.32,27.60,30.62,14.56,47.49,1018.69,2036.00,3008.13,2921.00,3154.98,599.92,598.53,39.21,0000 0000 0000 0000 000000
2015-10-01 09:21:29,0.00,1.33,0.00,22.19,27.60,30.67,14.64,47.58,1018.83,2036.00,3008.01,2921.00,3154.98,599.95,598.84,39.26,0000 0000 0000 0000 000000
2015-10-01 09:26:30,-0.00,1.33,0.00,22.10,27.60,30.73,14.63,47.67,1018.84,2036.02,3008.00,2921.00,3154.97,599.97,599.18,39.31,0000 0000 0000 0000 000000
2015-10-01 09:31:31,0.00,1.33,0.00,22.11,27.60,30.73,14.61,47.58,1018.96,2036.01,3008.00,2921.00,3154.95,599.98,599.19,39.36,0000 0000 0000 0000 000000
2015-10-01 09:36:33,0.00,1.33,0.00,22.35,27.60,30.59,14.65,47.61,1018.97,2036.01,3008.00,2921.00,3154.74,600.07,598.82,39.41,0000 0000 0000 0000 000000
2015-10-01 09:41:34,0.00,1.33,0.00,22.46,27.60,30.58,14.61,47.42,1019.01,2036.01,3008.00,2920.99,3154.41,599.96,598.47,39.46,0000 0000 0000 0000 000000
2015-10-01 09:46:36,0.00,1.33,0.00,22.32,27.60,30.61,14.54,47.58,1018.97,2036.01,3007.97,2920.98,3154.12,599.29,598.07,39.51,0000 0000 0000 0000 000000
2015-10-01 09:51:37,0.00,1.33,0.00,22.19,27.60,30.68,14.64,47.57,1019.01,2036.00,3007.86,2920.95,3154.03,599.90,599.04,39.56,0000 0000 0000 0000 000000
2015-10-01 09:56:38,0.00,1.33,0.00,22.11,27.60,30.72,14.63,47.57,1018.95,2036.00,3007.68,2920.95,3154.01,599.94,599.14,39.61,0000 0000 0000 0000 000000
2015-10-01 10:01:40,0.00,1.33,0.00,22.20,27.60,30.66,14.66,47.62,1018.81,2036.00,3007.53,2920.94,3154.00,600.03,598.97,39.66,0000 0000 0000 0000 000000
2015-10-01 10:06:41,0.00,1.33,0.00,22.47,27.61,30.60,14.64,47.51,1018.82,2036.00,3007.20,2920.88,3154.00,600.18,598.59,39.71,0000 0000 0000 0000 000000
2015-10-01 10:11:42,0.01,1.33,0.00,22.46,27.62,30.61,14.68,47.42,1018.93,2036.00,3007.07,2920.66,3154.00,600.05,598.48,39.76,0000 0000 0000 0000 000000
2015-10-01 10:16:43,0.00,1.33,0.00,22.30,27.62,30.66,14.64,47.52,1018.84,2036.00,3007.02,2920.66,3154.00,599.88,598.69,39.81,0000 0000 0000 0000 000000
2015-10-01 10:21:44,0.00,1.33,0.00,22.18,27.62,30.71,14.61,47.57,1018.65,2036.00,3007.01,2920.72,3154.00,599.67,598.61,39.86,0000 0000 0000 0000 000000
2015-10-01 10:26:45,0.01,1.33,0.00,22.13,27.62,30.80,14.73,47.52,1018.71,2036.00,3007.00,2920.32,3153.98,600.11,599.12,39.91,0000 0000 0000 0000 000000
2015-10-01 10:31:47,0.00,1.33,0.00,22.11,27.62,30.86,14.74,47.50,1019.04,2036.00,3007.00,2920.19,3153.92,600.31,599.73,39.96,0000 0000 0000 0000 000000
2015-10-01 10:36:48,0.00,1.33,0.00,22.30,27.62,30.64,14.62,47.47,1019.05,2036.00,3006.99,2920.11,3153.85,600.15,599.04,40.01,0000 0000 0000 0000 000000
2015-10-01 10:41:50,0.01,1.34,0.00,22.52,27.62,30.63,14.54,47.40,1019.06,2036.00,3006.92,2920.01,3153.44,599.95,598.34,40.07,0000 0000 0000 0000 000000
2015-10-01 10:46:51,0.01,1.34,0.00,22.43,27.62,30.66,14.66,47.44,1019.06,2036.00,3006.60,2920.01,3153.13,599.86,598.33,40.12,0000 0000 0000 0000 000000
2015-10-01 10:51:52,0.00,1.34,0.00,22.27,27.62,30.66,14.72,47.42,1019.06,2036.00,3006.26,2920.03,3153.07,600.19,599.19,40.17,0000 0000 0000 0000 000000
2015-10-01 10:56:53,0.00,1.34,0.00,22.20,27.62,30.72,14.71,47.48,1019.06,2036.00,3006.03,2920.02,3153.01,600.08,599.16,40.22,0000 0000 0000 0000 000000
2015-10-01 11:01:54,0.00,1.34,0.00,22.19,27.62,30.69,14.68,47.46,1019.06,2036.00,3006.00,2920.01,3153.00,600.06,599.03,40.27,0000 0000 0000 0000 000000
2015-10-01 11:06:56,0.00,1.34,0.00,22.44,27.62,30.61,14.60,47.36,1019.06,2036.00,3006.00,2920.01,3153.00,600.02,598.61,40.32,0000 0000 0000 0000 000000
2015-10-01 11:11:57,0.00,1.34,0.00,22.47,27.64,30.63,14.65,47.44,1019.06,2036.00,3005.95,2920.00,3153.00,599.87,598.56,40.37,0000 0000 0000 0000 000000
2015-10-01 11:16:58,0.01,1.34,0.00,22.30,27.64,30.63,14.61,47.42,1019.06,2036.00,3005.25,2920.00,3152.99,600.01,598.78,40.42,0000 0000 0000 0000 000000
2015-10-01 11:21:59,0.00,1.34,0.00,22.23,27.64,30.70,14.68,47.42,1019.07,2036.00,3005.10,2920.00,3152.98,600.07,599.16,40.47,0000 0000 0000 0000 000000
2015-10-01 11:27:01,0.00,1.34,0.00,22.25,27.64,30.66,14.61,47.38,1019.07,2036.00,3005.07,2920.00,3152.94,599.75,598.76,40.52,0000 0000 0000 0000 000000
2015-10-01 11:32:02,0.01,1.34,0.00,22.49,27.65,30.59,14.65,47.32,1019.06,2036.00,3005.01,2919.99,3152.51,600.52,598.85,40.57,0000 0000 0000 0000 000000
2015-10-01 11:37:04,0.00,1.34,0.00,22.54,27.65,30.61,14.61,47.33,1019.06,2036.00,3005.01,2919.98,3152.14,599.88,598.28,40.62,0000 0000 0000 0000 000000
2015-10-01 11:42:05,0.00,1.34,0.00,22.39,27.65,30.64,14.57,47.62,1019.04,2036.00,3005.00,2919.96,3152.02,599.35,598.01,40.67,0000 0000 0000 0000 000000
2015-10-01 11:47:06,0.00,1.34,0.00,22.29,27.65,30.65,14.58,47.59,1019.02,2036.00,3004.99,2919.97,3152.01,600.08,599.06,40.72,0000 0000 0000 0000 000000
2015-10-01 11:52:07,0.00,1.34,0.00,22.36,27.66,30.62,14.66,47.58,1019.03,2036.00,3004.99,2919.97,3152.00,600.18,598.81,40.77,0000 0000 0000 0000 000000
2015-10-01 11:57:09,0.00,1.34,0.00,22.60,27.67,30.58,14.68,47.48,1019.06,2036.00,3004.97,2919.97,3152.00,600.22,598.72,40.82,0000 0000 0000 0000 000000
2015-10-01 12:02:10,0.00,1.34,0.00,22.61,27.67,30.62,14.61,47.45,1019.06,2036.00,3004.90,2919.91,3152.00,600.00,598.19,40.87,0000 0000 0000 0000 000000
2015-10-01 12:07:12,0.01,1.34,0.00,22.44,27.67,30.66,14.59,47.52,1019.05,2036.00,3004.54,2919.87,3151.98,599.68,598.16,40.92,0000 0000 0000 0000 000000
2015-10-01 12:12:13,0.00,1.34,0.00,22.33,27.68,30.70,14.60,47.53,1019.05,2036.00,3004.25,2919.69,3151.93,600.19,599.02,40.97,0000 0000 0000 0000 000000
2015-10-01 12:17:14,0.01,1.34,0.00,22.40,27.69,30.67,14.70,47.63,1019.04,2036.00,3004.31,2919.79,3151.84,600.42,599.02,41.03,0000 0000 0000 0000 000000
2015-10-01 12:22:16,0.00,1.34,0.00,22.64,27.70,30.60,14.63,47.39,1018.95,2035.98,3004.30,2919.74,3151.62,600.10,598.33,41.08,0000 0000 0000 0000 000000
2015-10-01 12:27:17,0.02,1.34,0.00,22.59,27.70,30.63,14.66,47.49,1019.01,2035.99,3004.05,2919.26,3151.14,600.51,598.72,41.13,0000 0000 0000 0000 000000
2015-10-01 12:32:19,-0.01,1.34,0.00,22.52,27.71,30.63,14.60,47.48,1018.99,2035.98,3004.03,2919.36,3151.08,599.75,598.19,41.18,0000 0000 0000 0000 000000
2015-10-01 12:37:20,0.00,1.34,0.00,22.69,27.72,30.58,14.63,47.34,1018.98,2035.98,3004.03,2919.39,3151.03,599.99,598.08,41.23,0000 0000 0000 0000 000000
2015-10-01 12:42:21,0.00,1.34,0.00,22.79,27.72,30.58,14.58,47.29,1018.94,2035.93,3004.00,2919.08,3151.00,600.03,597.79,41.28,0000 0000 0000 0000 000000
2015-10-01 12:47:22,-0.00,1.34,0.00,22.63,27.74,30.66,14.57,47.62,1018.91,2035.88,3004.00,2919.06,3151.00,599.63,597.77,41.33,0000 0000 0000 0000 000000
2015-10-01 12:52:23,-0.00,1.34,0.00,22.50,27.74,30.68,14.66,47.63,1018.83,2035.71,3003.97,2919.02,3150.98,600.11,598.46,41.38,0000 0000 0000 0000 000000
2015-10-01 12:57:25,-0.03,1.34,0.00,22.64,27.75,30.63,14.65,47.45,1018.97,2035.43,3003.86,2919.00,3150.97,600.54,598.71,41.43,0000 0000 0000 0000 000000